Montichiari, Italy

8:50 AM CEST on September 23, 2017 (GMT +0200)
Montichiari

Weather History for LIPO - December, 2012

Change the Weather History Date:

Monday, December 17, 2012

  Actual Average (LIPL) Record (LIPL)
Temperature  
Mean Temperature 34 °F -  
Max Temperature 35 °F 42 °F 52 °F (2015)
Min Temperature 32 °F 28 °F 19 °F (2001)
Degree Days  
Heating Degree Days 32    
Moisture  
Dew Point 33 °F    
Average Humidity 100    
Maximum Humidity 100    
Minimum Humidity 100    
Precipitation  
Precipitation 0.00 in - - ()
Sea Level Pressure  
Sea Level Pressure 29.88 in    
Wind  
Wind Speed 4 mph ()    
Max Wind Speed 9 mph    
Max Gust Speed -    
Visibility 0.5 miles    
Events Fog    
Averages and records for this station are not official NWS values.
T = Trace of Precipitation, MM = Missing Value Source: Averaged Metar Reports

Daily Weather History Graph

Daily Weather History Graph

Search for Another Location

Airport or City:

Trip Planner

Search our weather history database for the weather conditions in past years. The results will help you decide how hot, cold, wet, or windy it might be!

Date:

Astronomy

Dec. 17, 2012 Rise Set
Actual Time 7:53 AM CET 4:36 PM CET
Civil Twilight 7:19 AM CET 5:10 PM CET
Nautical Twilight 6:41 AM CET 5:48 PM CET
Astronomical Twilight 6:05 AM CET 6:24 PM CET
Moon 10:41 AM CET (12/17) 9:52 PM CET (12/17)
Length of Visible Light 9h 51m
Length of Day
8h 43m
Waxing Crescent, 22% of the Moon is Illuminated
Dec 17
Waxing Crescent
Dec 20
First Quarter
Dec 28
Full
Jan 5
Last Quarter
Jan 11
New

Hourly Weather History & Observations

Time (CET) Temp. Windchill Dew Point Humidity Pressure Visibility Wind Dir Wind Speed Gust Speed Precip Events Conditions
12:50 AM 33.8 °F - 33.8 °F 100% 29.92 in 0.2 mi SE 1.2 mph - N/A Fog Fog
1:50 AM 32.0 °F 28.7 °F 32.0 °F 100% 29.92 in 0.2 mi SSW 3.5 mph - N/A Fog Fog
2:50 AM 32.0 °F - 32.0 °F 100% 29.92 in 0.2 mi South 1.2 mph - N/A Fog Fog
3:50 AM 32.0 °F - 32.0 °F 100% 29.92 in 0.2 mi SW 2.3 mph - N/A Fog Fog
4:50 AM 32.0 °F 28.7 °F 32.0 °F 100% 29.89 in 0.2 mi SSW 3.5 mph - N/A Fog Fog
5:50 AM 32.0 °F 28.7 °F 32.0 °F 100% 29.89 in 0.2 mi South 3.5 mph - N/A Fog Fog
6:50 AM 32.0 °F 27.5 °F 32.0 °F 100% 29.89 in 0.4 mi West 4.6 mph - N/A Fog Fog
7:50 AM 32.0 °F 28.7 °F 32.0 °F 100% 29.89 in 0.4 mi WNW 3.5 mph - N/A Fog Fog
8:50 AM 32.0 °F - 32.0 °F 100% 29.89 in 0.4 mi West 1.2 mph - N/A Fog Fog
9:50 AM 33.8 °F 26.4 °F 33.8 °F 100% 29.92 in 1.0 mi NW 9.2 mph - N/A   Mostly Cloudy
10:50 AM 35.6 °F 28.6 °F 35.6 °F 100% 29.89 in 1.2 mi WNW 9.2 mph - N/A   Mostly Cloudy
11:50 AM 35.6 °F 30.7 °F 35.6 °F 100% 29.89 in 1.6 mi West 5.8 mph - N/A   Mostly Cloudy
12:50 PM 35.6 °F 31.7 °F 35.6 °F 100% 29.86 in 1.6 mi West 4.6 mph - N/A   Mostly Cloudy
1:50 PM 35.6 °F 30.7 °F 35.6 °F 100% 29.86 in 1.2 mi WSW 5.8 mph - N/A   Mostly Cloudy
2:50 PM 33.8 °F 27.7 °F 33.8 °F 100% 29.86 in 0.6 mi West 6.9 mph - N/A Fog Patches of Fog
3:50 PM 33.8 °F 26.4 °F 33.8 °F 100% 29.86 in 0.6 mi WSW 9.2 mph - N/A Fog Patches of Fog
4:50 PM 33.8 °F 27.7 °F 33.8 °F 100% 29.86 in 0.7 mi WNW 6.9 mph - N/A   Mostly Cloudy
5:15 PM 33.8 °F 26.4 °F 33.8 °F 100% 29.83 in 0.2 mi WNW 9.2 mph - N/A Fog Fog
5:50 PM 33.8 °F 26.4 °F 33.8 °F 100% 29.83 in 0.1 mi WNW 9.2 mph - N/A Fog Fog
6:50 PM 33.8 °F 27.0 °F 33.8 °F 100% 29.86 in 0.1 mi WNW 8.1 mph - N/A Fog Fog
7:50 PM 33.8 °F 28.6 °F 33.8 °F 100% 29.86 in 0.1 mi WNW 5.8 mph - N/A Fog Fog
8:50 PM 33.8 °F - 33.8 °F 100% 29.86 in 0.1 mi NW 2.3 mph - N/A Fog Fog
9:25 PM 33.8 °F 28.6 °F 33.8 °F 100% 29.86 in 0.1 mi WNW 5.8 mph - N/A Fog Fog
9:50 PM 33.8 °F 28.6 °F 33.8 °F 100% 29.86 in 0.1 mi West 5.8 mph - N/A Fog Fog
10:25 PM 32.0 °F 26.4 °F 32.0 °F 100% 29.89 in 0.1 mi West 5.8 mph - N/A Fog Fog